owner,sensor,date,latitude,longitude,vertical_datum,mass_concentration_of_oxygen_in_sea_water,qcFlag 
DISL,ioos:station:DISL:DISL:1,2017-03-01T00:00:00Z,30.2513,-88.0778,2.009,8.92,1111122 
DISL,ioos:station:DISL:DISL:1,2017-03-01T00:30:00Z,30.2513,-88.0778,2.017,8.76,1111122 
DISL,ioos:station:DISL:DISL:1,2017-03-01T01:00:00Z,30.2513,-88.0778,2.028,8.77,1111122 
DISL,ioos:station:DISL:DISL:1,2017-03-01T01:30:00Z,30.2513,-88.0778,2.038,8.71,1111122 
DISL,ioos:station:DISL:DISL:1,2017-03-01T02:00:00Z,30.2513,-88.0778,2.053,8.75,1111122 
DISL,ioos:station:DISL:DISL:1,2017-03-01T02:30:00Z,30.2513,-88.0778,2.068,8.68,1111122 
DISL,ioos:station:DISL:DISL:1,2017-03-01T03:00:00Z,30.2513,-88.0778,2.071,8.39,1111122 
DISL,ioos:station:DISL:DISL:1,2017-03-01T03:30:00Z,30.2513,-88.0778,2.084,8.45,1111122 
DISL,ioos:station:DISL:DISL:1,2017-03-01T04:00:00Z,30.2513,-88.0778,2.102,8.26,1111122 
DISL,ioos:station:DISL:DISL:1,2017-03-01T04:30:00Z,30.2513,-88.0778,2.092,8.34,1111122 
DISL,ioos:station:DISL:DISL:1,2017-03-01T05:00:00Z,30.2513,-88.0778,2.116,8.6,1111122 
DISL,ioos:station:DISL:DISL:1,2017-03-01T05:30:00Z,30.2513,-88.0778,2.137,8.48,1111122 
DISL,ioos:station:DISL:DISL:1,2017-03-01T06:00:00Z,30.2513,-88.0778,2.151,8.27,1111122 
DISL,ioos:station:DISL:DISL:1,2017-03-01T06:30:00Z,30.2513,-88.0778,2.151,8.23,1111122 
DISL,ioos:station:DISL:DISL:1,2017-03-01T07:00:00Z,30.2513,-88.0778,2.172,8.26,1111122 
DISL,ioos:station:DISL:DISL:1,2017-03-01T07:30:00Z,30.2513,-88.0778,2.17,8.25,1111122 
DISL,ioos:station:DISL:DISL:1,2017-03-01T08:00:00Z,30.2513,-88.0778,2.187,8.12,1111122 
DISL,ioos:station:DISL:DISL:1,2017-03-01T08:30:00Z,30.2513,-88.0778,2.176,7.6,1111122 
DISL,ioos:station:DISL:DISL:1,2017-03-01T09:00:00Z,30.2513,-88.0778,2.176,7.26,1111122 
DISL,ioos:station:DISL:DISL:1,2017-03-01T09:30:00Z,30.2513,-88.0778,2.161,7.56,1111122 
DISL,ioos:station:DISL:DISL:1,2017-03-01T10:00:00Z,30.2513,-88.0778,2.154,7.97,1111122 
DISL,ioos:station:DISL:DISL:1,2017-03-01T10:30:00Z,30.2513,-88.0778,2.134,7.92,1111122 
DISL,ioos:station:DISL:DISL:1,2017-03-01T11:00:00Z,30.2513,-88.0778,2.134,7.89,1111122 
DISL,ioos:station:DISL:DISL:1,2017-03-01T11:30:00Z,30.2513,-88.0778,2.149,7.83,1111122 
DISL,ioos:station:DISL:DISL:1,2017-03-01T12:00:00Z,30.2513,-88.0778,2.14,7.81,1111122 
DISL,ioos:station:DISL:DISL:1,2017-03-01T12:30:00Z,30.2513,-88.0778,2.128,7.46,1111122 
DISL,ioos:station:DISL:DISL:1,2017-03-01T13:00:00Z,30.2513,-88.0778,2.119,7.49,1111122 
DISL,ioos:station:DISL:DISL:1,2017-03-01T13:30:00Z,30.2513,-88.0778,2.123,7.46,1111122 
DISL,ioos:station:DISL:DISL:1,2017-03-01T14:00:00Z,30.2513,-88.0778,2.127,7.5,1111122 
DISL,ioos:station:DISL:DISL:1,2017-03-01T14:30:00Z,30.2513,-88.0778,2.113,7.72,1111122 
DISL,ioos:station:DISL:DISL:1,2017-03-01T15:00:00Z,30.2513,-88.0778,2.099,7.88,1111122 
DISL,ioos:station:DISL:DISL:1,2017-03-01T15:30:00Z,30.2513,-88.0778,2.087,7.25,1111122 
DISL,ioos:station:DISL:DISL:1,2017-03-01T16:00:00Z,30.2513,-88.0778,2.105,7.95,1111122 
DISL,ioos:station:DISL:DISL:1,2017-03-01T16:30:00Z,30.2513,-88.0778,2.086,8.27,1111122 
DISL,ioos:station:DISL:DISL:1,2017-03-01T17:00:00Z,30.2513,-88.0778,2.085,8.3,1111122 
DISL,ioos:station:DISL:DISL:1,2017-03-01T17:30:00Z,30.2513,-88.0778,2.085,8.25,1111122 
DISL,ioos:station:DISL:DISL:1,2017-03-01T18:00:00Z,30.2513,-88.0778,2.072,8.13,1111122 
DISL,ioos:station:DISL:DISL:1,2017-03-01T18:30:00Z,30.2513,-88.0778,2.049,7.72,1111122 
DISL,ioos:station:DISL:DISL:1,2017-03-01T19:00:00Z,30.2513,-88.0778,2.055,7.8,1111122 
DISL,ioos:station:DISL:DISL:1,2017-03-01T19:30:00Z,30.2513,-88.0778,2.051,7.55,1111122 
DISL,ioos:station:DISL:DISL:1,2017-03-01T20:00:00Z,30.2513,-88.0778,2.067,7.7,1111122 
DISL,ioos:station:DISL:DISL:1,2017-03-01T20:30:00Z,30.2513,-88.0778,2.049,7.68,1111122 
DISL,ioos:station:DISL:DISL:1,2017-03-01T21:00:00Z,30.2513,-88.0778,2.065,8.18,1111122 
DISL,ioos:station:DISL:DISL:1,2017-03-01T21:30:00Z,30.2513,-88.0778,2.043,8.4,1111122 
DISL,ioos:station:DISL:DISL:1,2017-03-01T22:00:00Z,30.2513,-88.0778,2.032,8.19,1111122 
DISL,ioos:station:DISL:DISL:1,2017-03-01T22:30:00Z,30.2513,-88.0778,2.031,8.37,1111122 
DISL,ioos:station:DISL:DISL:1,2017-03-01T23:00:00Z,30.2513,-88.0778,2.021,8.44,1111122 
DISL,ioos:station:DISL:DISL:1,2017-03-01T23:30:00Z,30.2513,-88.0778,1.995,8.23,1111122 
DISL,ioos:station:DISL:DISL:1,2017-03-02T00:00:00Z,30.2513,-88.0778,1.998,8.46,1111122 
DISL,ioos:station:DISL:DISL:1,2017-03-02T00:30:00Z,30.2513,-88.0778,2.009,8.07,1111122 
DISL,ioos:station:DISL:DISL:1,2017-03-02T01:00:00Z,30.2513,-88.0778,2.005,8.01,1111122 
DISL,ioos:station:DISL:DISL:1,2017-03-02T01:30:00Z,30.2513,-88.0778,2.007,8.38,1111122 
DISL,ioos:station:DISL:DISL:1,2017-03-02T02:00:00Z,30.2513,-88.0778,2.017,9.25,1111122 
DISL,ioos:station:DISL:DISL:1,2017-03-02T02:30:00Z,30.2513,-88.0778,2.025,9.44,1111122 
DISL,ioos:station:DISL:DISL:1,2017-03-02T03:00:00Z,30.2513,-88.0778,2.023,8.44,1111122 
DISL,ioos:station:DISL:DISL:1,2017-03-02T03:30:00Z,30.2513,-88.0778,2.043,8.0,1111122 
DISL,ioos:station:DISL:DISL:1,2017-03-02T04:00:00Z,30.2513,-88.0778,2.049,8.1,1111122 
DISL,ioos:station:DISL:DISL:1,2017-03-02T04:30:00Z,30.2513,-88.0778,2.091,8.79,1111122 
DISL,ioos:station:DISL:DISL:1,2017-03-02T05:00:00Z,30.2513,-88.0778,2.166,8.5,1111122 
DISL,ioos:station:DISL:DISL:1,2017-03-02T05:30:00Z,30.2513,-88.0778,2.077,8.09,1111122 
DISL,ioos:station:DISL:DISL:1,2017-03-02T06:30:00Z,30.2513,-88.0778,1.969,8.65,1111122 
DISL,ioos:station:DISL:DISL:1,2017-03-02T07:00:00Z,30.2513,-88.0778,2.006,8.32,1111122 
DISL,ioos:station:DISL:DISL:1,2017-03-02T07:30:00Z,30.2513,-88.0778,1.981,8.43,1111122 
DISL,ioos:station:DISL:DISL:1,2017-03-02T08:00:00Z,30.2513,-88.0778,2.078,8.24,1111122 
DISL,ioos:station:DISL:DISL:1,2017-03-02T08:30:00Z,30.2513,-88.0778,1.954,8.11,1111122 
DISL,ioos:station:DISL:DISL:1,2017-03-02T09:00:00Z,30.2513,-88.0778,1.981,8.08,1111122 
DISL,ioos:station:DISL:DISL:1,2017-03-02T09:30:00Z,30.2513,-88.0778,2.009,8.11,1111122 
DISL,ioos:station:DISL:DISL:1,2017-03-02T10:00:00Z,30.2513,-88.0778,1.883,8.07,1111122 
DISL,ioos:station:DISL:DISL:1,2017-03-02T10:30:00Z,30.2513,-88.0778,2.064,8.04,1111122 
DISL,ioos:station:DISL:DISL:1,2017-03-02T11:00:00Z,30.2513,-88.0778,1.984,8.08,1111122 
DISL,ioos:station:DISL:DISL:1,2017-03-02T11:30:00Z,30.2513,-88.0778,1.887,8.1,1111122 
DISL,ioos:station:DISL:DISL:1,2017-03-02T12:00:00Z,30.2513,-88.0778,1.816,8.15,1111122 
DISL,ioos:station:DISL:DISL:1,2017-03-02T12:30:00Z,30.2513,-88.0778,1.903,8.24,1111122 
DISL,ioos:station:DISL:DISL:1,2017-03-02T13:00:00Z,30.2513,-88.0778,1.85,8.2,1111122 
DISL,ioos:station:DISL:DISL:1,2017-03-02T13:30:00Z,30.2513,-88.0778,1.895,8.21,1111122 
DISL,ioos:station:DISL:DISL:1,2017-03-02T14:00:00Z,30.2513,-88.0778,1.993,8.29,1111122 
DISL,ioos:station:DISL:DISL:1,2017-03-02T14:30:00Z,30.2513,-88.0778,2.189,8.33,1111122 
DISL,ioos:station:DISL:DISL:1,2017-03-02T15:00:00Z,30.2513,-88.0778,2.019,8.38,1111122 
DISL,ioos:station:DISL:DISL:1,2017-03-02T15:30:00Z,30.2513,-88.0778,1.981,8.43,1111122 
DISL,ioos:station:DISL:DISL:1,2017-03-02T16:00:00Z,30.2513,-88.0778,2.068,8.51,1111122 
DISL,ioos:station:DISL:DISL:1,2017-03-02T16:30:00Z,30.2513,-88.0778,1.813,8.83,1111122 
DISL,ioos:station:DISL:DISL:1,2017-03-02T17:00:00Z,30.2513,-88.0778,1.966,8.68,1111122 
DISL,ioos:station:DISL:DISL:1,2017-03-02T17:30:00Z,30.2513,-88.0778,1.922,8.68,1111122 
DISL,ioos:station:DISL:DISL:1,2017-03-02T18:00:00Z,30.2513,-88.0778,1.987,8.7,1111122 
DISL,ioos:station:DISL:DISL:1,2017-03-02T18:30:00Z,30.2513,-88.0778,1.973,8.72,1111122 
DISL,ioos:station:DISL:DISL:1,2017-03-02T19:00:00Z,30.2513,-88.0778,1.93,8.75,1111122 
DISL,ioos:station:DISL:DISL:1,2017-03-02T19:30:00Z,30.2513,-88.0778,1.974,8.67,1111122 
DISL,ioos:station:DISL:DISL:1,2017-03-02T20:00:00Z,30.2513,-88.0778,2.007,8.78,1111122 
DISL,ioos:station:DISL:DISL:1,2017-03-02T20:30:00Z,30.2513,-88.0778,2.014,8.85,1111122 
DISL,ioos:station:DISL:DISL:1,2017-03-02T21:00:00Z,30.2513,-88.0778,2.058,8.91,1111122 
DISL,ioos:station:DISL:DISL:1,2017-03-02T21:30:00Z,30.2513,-88.0778,2.013,8.93,1111122 
DISL,ioos:station:DISL:DISL:1,2017-03-02T22:00:00Z,30.2513,-88.0778,1.948,8.9,1111122 
DISL,ioos:station:DISL:DISL:1,2017-03-02T22:30:00Z,30.2513,-88.0778,1.976,8.89,1111122 
DISL,ioos:station:DISL:DISL:1,2017-03-02T23:00:00Z,30.2513,-88.0778,2.001,8.85,1111122 
DISL,ioos:station:DISL:DISL:1,2017-03-02T23:30:00Z,30.2513,-88.0778,1.987,8.81,1111122 
DISL,ioos:station:DISL:DISL:1,2017-03-03T00:00:00Z,30.2513,-88.0778,1.979,8.74,1111122 
DISL,ioos:station:DISL:DISL:1,2017-03-03T00:30:00Z,30.2513,-88.0778,1.85,8.74,1111122 
DISL,ioos:station:DISL:DISL:1,2017-03-03T01:00:00Z,30.2513,-88.0778,1.928,8.48,1111122 
DISL,ioos:station:DISL:DISL:1,2017-03-03T01:30:00Z,30.2513,-88.0778,1.946,8.44,1111122 
DISL,ioos:station:DISL:DISL:1,2017-03-03T02:00:00Z,30.2513,-88.0778,1.848,8.41,1111122 
DISL,ioos:station:DISL:DISL:1,2017-03-03T02:30:00Z,30.2513,-88.0778,1.897,8.43,1111122 
DISL,ioos:station:DISL:DISL:1,2017-03-03T03:00:00Z,30.2513,-88.0778,1.759,8.42,1111122 
DISL,ioos:station:DISL:DISL:1,2017-03-03T03:30:00Z,30.2513,-88.0778,1.98,8.39,1111122 
DISL,ioos:station:DISL:DISL:1,2017-03-03T04:00:00Z,30.2513,-88.0778,1.749,8.46,1111122 
DISL,ioos:station:DISL:DISL:1,2017-03-03T04:30:00Z,30.2513,-88.0778,1.847,8.48,1111122 
DISL,ioos:station:DISL:DISL:1,2017-03-03T05:00:00Z,30.2513,-88.0778,1.763,8.52,1111122 
DISL,ioos:station:DISL:DISL:1,2017-03-03T05:30:00Z,30.2513,-88.0778,1.794,8.55,1111122 
DISL,ioos:station:DISL:DISL:1,2017-03-03T06:30:00Z,30.2513,-88.0778,1.679,8.54,1111122 
DISL,ioos:station:DISL:DISL:1,2017-03-03T07:00:00Z,30.2513,-88.0778,1.77,8.61,1111122 
DISL,ioos:station:DISL:DISL:1,2017-03-03T07:30:00Z,30.2513,-88.0778,1.768,8.57,1111122 
DISL,ioos:station:DISL:DISL:1,2017-03-03T08:00:00Z,30.2513,-88.0778,1.7,8.54,1111122 
DISL,ioos:station:DISL:DISL:1,2017-03-03T08:30:00Z,30.2513,-88.0778,1.786,8.58,1111122 
DISL,ioos:station:DISL:DISL:1,2017-03-03T09:00:00Z,30.2513,-88.0778,1.796,8.67,1111122 
DISL,ioos:station:DISL:DISL:1,2017-03-03T09:30:00Z,30.2513,-88.0778,1.791,8.63,1111122 
DISL,ioos:station:DISL:DISL:1,2017-03-03T10:00:00Z,30.2513,-88.0778,1.77,8.82,1111122 
DISL,ioos:station:DISL:DISL:1,2017-03-03T10:30:00Z,30.2513,-88.0778,1.773,8.81,1111122 
DISL,ioos:station:DISL:DISL:1,2017-03-03T11:00:00Z,30.2513,-88.0778,1.788,8.83,1111122 
DISL,ioos:station:DISL:DISL:1,2017-03-03T11:30:00Z,30.2513,-88.0778,1.804,8.98,1111122 
DISL,ioos:station:DISL:DISL:1,2017-03-03T12:00:00Z,30.2513,-88.0778,1.808,8.95,1111122 
DISL,ioos:station:DISL:DISL:1,2017-03-03T12:30:00Z,30.2513,-88.0778,1.776,8.99,1111122 
DISL,ioos:station:DISL:DISL:1,2017-03-03T13:00:00Z,30.2513,-88.0778,1.799,8.93,1111122 
DISL,ioos:station:DISL:DISL:1,2017-03-03T13:30:00Z,30.2513,-88.0778,1.797,8.82,1111122 
DISL,ioos:station:DISL:DISL:1,2017-03-03T14:00:00Z,30.2513,-88.0778,1.816,8.82,1111122 
DISL,ioos:station:DISL:DISL:1,2017-03-03T14:30:00Z,30.2513,-88.0778,1.872,8.87,1111122 
DISL,ioos:station:DISL:DISL:1,2017-03-03T15:00:00Z,30.2513,-88.0778,1.932,8.82,1111122 
DISL,ioos:station:DISL:DISL:1,2017-03-03T15:30:00Z,30.2513,-88.0778,1.84,8.13,1111122 
DISL,ioos:station:DISL:DISL:1,2017-03-03T16:00:00Z,30.2513,-88.0778,1.867,7.58,1111122 
DISL,ioos:station:DISL:DISL:1,2017-03-03T16:30:00Z,30.2513,-88.0778,1.885,7.1,1111122 
DISL,ioos:station:DISL:DISL:1,2017-03-03T17:00:00Z,30.2513,-88.0778,1.852,7.05,1111122 
DISL,ioos:station:DISL:DISL:1,2017-03-03T17:30:00Z,30.2513,-88.0778,1.934,7.89,1111122 
DISL,ioos:station:DISL:DISL:1,2017-03-03T18:00:00Z,30.2513,-88.0778,1.929,8.01,1111122 
DISL,ioos:station:DISL:DISL:1,2017-03-03T18:30:00Z,30.2513,-88.0778,1.984,8.34,1111122 
DISL,ioos:station:DISL:DISL:1,2017-03-03T19:00:00Z,30.2513,-88.0778,1.997,7.94,1111122 
DISL,ioos:station:DISL:DISL:1,2017-03-03T19:30:00Z,30.2513,-88.0778,2.053,7.82,1111122 
DISL,ioos:station:DISL:DISL:1,2017-03-03T20:00:00Z,30.2513,-88.0778,2.006,7.75,1111122 
DISL,ioos:station:DISL:DISL:1,2017-03-03T20:30:00Z,30.2513,-88.0778,1.981,8.91,1111122 
DISL,ioos:station:DISL:DISL:1,2017-03-03T21:00:00Z,30.2513,-88.0778,2.002,9.12,1111122 
DISL,ioos:station:DISL:DISL:1,2017-03-03T21:30:00Z,30.2513,-88.0778,2.011,9.81,1111122 
DISL,ioos:station:DISL:DISL:1,2017-03-03T22:00:00Z,30.2513,-88.0778,2.003,9.76,1111122 
DISL,ioos:station:DISL:DISL:1,2017-03-03T22:30:00Z,30.2513,-88.0778,2.011,9.84,1111122 
DISL,ioos:station:DISL:DISL:1,2017-03-03T23:00:00Z,30.2513,-88.0778,1.978,9.85,1111122 
DISL,ioos:station:DISL:DISL:1,2017-03-03T23:30:00Z,30.2513,-88.0778,1.953,9.94,1111122 
DISL,ioos:station:DISL:DISL:1,2017-03-04T00:00:00Z,30.2513,-88.0778,1.964,10.01,1111122 
DISL,ioos:station:DISL:DISL:1,2017-03-04T00:30:00Z,30.2513,-88.0778,1.907,9.96,1111122 
DISL,ioos:station:DISL:DISL:1,2017-03-04T01:00:00Z,30.2513,-88.0778,1.914,9.44,1111122 
DISL,ioos:station:DISL:DISL:1,2017-03-04T01:30:00Z,30.2513,-88.0778,1.873,9.14,1111122 
DISL,ioos:station:DISL:DISL:1,2017-03-04T02:00:00Z,30.2513,-88.0778,1.827,9.14,1111122 
DISL,ioos:station:DISL:DISL:1,2017-03-04T02:30:00Z,30.2513,-88.0778,1.865,9.1,1111122 
DISL,ioos:station:DISL:DISL:1,2017-03-04T03:00:00Z,30.2513,-88.0778,1.879,9.05,1111122 
DISL,ioos:station:DISL:DISL:1,2017-03-04T03:30:00Z,30.2513,-88.0778,1.731,9.04,1111122 
DISL,ioos:station:DISL:DISL:1,2017-03-04T04:00:00Z,30.2513,-88.0778,1.807,9.01,1111122 
DISL,ioos:station:DISL:DISL:1,2017-03-04T04:30:00Z,30.2513,-88.0778,1.727,8.97,1111122 
DISL,ioos:station:DISL:DISL:1,2017-03-04T05:00:00Z,30.2513,-88.0778,1.733,8.96,1111122 
DISL,ioos:station:DISL:DISL:1,2017-03-04T05:30:00Z,30.2513,-88.0778,1.742,8.93,1111122 
DISL,ioos:station:DISL:DISL:1,2017-03-04T06:30:00Z,30.2513,-88.0778,1.728,8.94,1111122 
DISL,ioos:station:DISL:DISL:1,2017-03-04T07:00:00Z,30.2513,-88.0778,1.698,8.94,1111122 
DISL,ioos:station:DISL:DISL:1,2017-03-04T07:30:00Z,30.2513,-88.0778,1.73,8.94,1111122 
DISL,ioos:station:DISL:DISL:1,2017-03-04T08:00:00Z,30.2513,-88.0778,1.773,8.95,1111122 
DISL,ioos:station:DISL:DISL:1,2017-03-04T08:30:00Z,30.2513,-88.0778,1.714,8.94,1111122 
DISL,ioos:station:DISL:DISL:1,2017-03-04T09:00:00Z,30.2513,-88.0778,1.695,8.94,1111122 
DISL,ioos:station:DISL:DISL:1,2017-03-04T09:30:00Z,30.2513,-88.0778,1.667,9.01,1111122 
DISL,ioos:station:DISL:DISL:1,2017-03-04T10:00:00Z,30.2513,-88.0778,1.786,8.93,1111122 
DISL,ioos:station:DISL:DISL:1,2017-03-04T10:30:00Z,30.2513,-88.0778,1.747,8.84,1111122 
DISL,ioos:station:DISL:DISL:1,2017-03-04T11:00:00Z,30.2513,-88.0778,1.857,8.87,1111122 
DISL,ioos:station:DISL:DISL:1,2017-03-04T11:30:00Z,30.2513,-88.0778,1.781,8.88,1111122 
DISL,ioos:station:DISL:DISL:1,2017-03-04T12:00:00Z,30.2513,-88.0778,1.787,8.89,1111122 
DISL,ioos:station:DISL:DISL:1,2017-03-04T12:30:00Z,30.2513,-88.0778,1.815,8.88,1111122 
DISL,ioos:station:DISL:DISL:1,2017-03-04T13:00:00Z,30.2513,-88.0778,1.822,8.67,1111122 
DISL,ioos:station:DISL:DISL:1,2017-03-04T13:30:00Z,30.2513,-88.0778,1.91,8.61,1111122 
DISL,ioos:station:DISL:DISL:1,2017-03-04T14:00:00Z,30.2513,-88.0778,1.748,8.56,1111122 
DISL,ioos:station:DISL:DISL:1,2017-03-04T14:30:00Z,30.2513,-88.0778,1.836,8.55,1111122 
DISL,ioos:station:DISL:DISL:1,2017-03-04T15:00:00Z,30.2513,-88.0778,1.832,8.47,1111122 
DISL,ioos:station:DISL:DISL:1,2017-03-04T15:30:00Z,30.2513,-88.0778,1.811,8.15,1111122 
DISL,ioos:station:DISL:DISL:1,2017-03-04T16:00:00Z,30.2513,-88.0778,1.949,7.87,1111122 
DISL,ioos:station:DISL:DISL:1,2017-03-04T16:30:00Z,30.2513,-88.0778,1.879,7.5,1111122 
DISL,ioos:station:DISL:DISL:1,2017-03-04T17:00:00Z,30.2513,-88.0778,1.904,7.69,1111122 
DISL,ioos:station:DISL:DISL:1,2017-03-04T17:30:00Z,30.2513,-88.0778,1.938,7.57,1111122 
DISL,ioos:station:DISL:DISL:1,2017-03-04T18:00:00Z,30.2513,-88.0778,1.946,7.41,1111122 
DISL,ioos:station:DISL:DISL:1,2017-03-04T18:30:00Z,30.2513,-88.0778,1.966,7.44,1111122 
DISL,ioos:station:DISL:DISL:1,2017-03-04T19:00:00Z,30.2513,-88.0778,1.969,7.53,1111122 
DISL,ioos:station:DISL:DISL:1,2017-03-04T19:30:00Z,30.2513,-88.0778,1.974,7.43,1111122 
DISL,ioos:station:DISL:DISL:1,2017-03-04T20:00:00Z,30.2513,-88.0778,2.0,7.5,1111122 
DISL,ioos:station:DISL:DISL:1,2017-03-04T20:30:00Z,30.2513,-88.0778,1.988,7.51,1111122 
DISL,ioos:station:DISL:DISL:1,2017-03-04T21:00:00Z,30.2513,-88.0778,2.006,7.6,1111122 
DISL,ioos:station:DISL:DISL:1,2017-03-04T21:30:00Z,30.2513,-88.0778,1.998,7.82,1111122 
DISL,ioos:station:DISL:DISL:1,2017-03-04T22:00:00Z,30.2513,-88.0778,2.01,7.84,1111122 
DISL,ioos:station:DISL:DISL:1,2017-03-04T22:30:00Z,30.2513,-88.0778,2.005,8.35,1111122 
DISL,ioos:station:DISL:DISL:1,2017-03-04T23:00:00Z,30.2513,-88.0778,1.995,8.41,1111122 
DISL,ioos:station:DISL:DISL:1,2017-03-04T23:30:00Z,30.2513,-88.0778,1.992,8.99,1111122 
DISL,ioos:station:DISL:DISL:1,2017-03-05T00:00:00Z,30.2513,-88.0778,1.959,8.1,1111122 
DISL,ioos:station:DISL:DISL:1,2017-03-05T00:30:00Z,30.2513,-88.0778,1.942,8.05,1111122 
DISL,ioos:station:DISL:DISL:1,2017-03-05T01:00:00Z,30.2513,-88.0778,1.918,8.0,1111122 
DISL,ioos:station:DISL:DISL:1,2017-03-05T01:30:00Z,30.2513,-88.0778,1.908,9.04,1111122 
DISL,ioos:station:DISL:DISL:1,2017-03-05T02:00:00Z,30.2513,-88.0778,1.889,9.07,1111122 
DISL,ioos:station:DISL:DISL:1,2017-03-05T02:30:00Z,30.2513,-88.0778,1.872,9.17,1111122 
DISL,ioos:station:DISL:DISL:1,2017-03-05T03:00:00Z,30.2513,-88.0778,1.847,9.16,1111122 
DISL,ioos:station:DISL:DISL:1,2017-03-05T03:30:00Z,30.2513,-88.0778,1.838,8.82,1111122 
DISL,ioos:station:DISL:DISL:1,2017-03-05T04:00:00Z,30.2513,-88.0778,1.817,9.01,1111122 
DISL,ioos:station:DISL:DISL:1,2017-03-05T04:30:00Z,30.2513,-88.0778,1.803,9.09,1111122 
DISL,ioos:station:DISL:DISL:1,2017-03-05T05:00:00Z,30.2513,-88.0778,1.782,8.94,1111122 
DISL,ioos:station:DISL:DISL:1,2017-03-05T05:30:00Z,30.2513,-88.0778,1.761,8.9,1111122 
DISL,ioos:station:DISL:DISL:1,2017-03-05T06:30:00Z,30.2513,-88.0778,1.732,8.85,1111122 
DISL,ioos:station:DISL:DISL:1,2017-03-05T07:00:00Z,30.2513,-88.0778,1.743,8.85,1111122 
DISL,ioos:station:DISL:DISL:1,2017-03-05T07:30:00Z,30.2513,-88.0778,1.726,8.84,1111122 
DISL,ioos:station:DISL:DISL:1,2017-03-05T08:00:00Z,30.2513,-88.0778,1.645,8.86,1111122 
DISL,ioos:station:DISL:DISL:1,2017-03-05T08:30:00Z,30.2513,-88.0778,1.725,8.94,1111122 
DISL,ioos:station:DISL:DISL:1,2017-03-05T09:00:00Z,30.2513,-88.0778,1.723,8.98,1111122 
DISL,ioos:station:DISL:DISL:1,2017-03-05T09:30:00Z,30.2513,-88.0778,1.722,8.96,1111122 
DISL,ioos:station:DISL:DISL:1,2017-03-05T10:00:00Z,30.2513,-88.0778,1.744,8.78,1111122 
DISL,ioos:station:DISL:DISL:1,2017-03-05T10:30:00Z,30.2513,-88.0778,1.736,8.91,1111122 
DISL,ioos:station:DISL:DISL:1,2017-03-05T11:00:00Z,30.2513,-88.0778,1.768,8.88,1111122 
DISL,ioos:station:DISL:DISL:1,2017-03-05T11:30:00Z,30.2513,-88.0778,1.822,7.51,1111122 
DISL,ioos:station:DISL:DISL:1,2017-03-05T12:00:00Z,30.2513,-88.0778,1.805,7.57,1111122 
DISL,ioos:station:DISL:DISL:1,2017-03-05T12:30:00Z,30.2513,-88.0778,1.819,7.71,1111122 
DISL,ioos:station:DISL:DISL:1,2017-03-05T13:00:00Z,30.2513,-88.0778,1.836,8.06,1111122 
DISL,ioos:station:DISL:DISL:1,2017-03-05T13:30:00Z,30.2513,-88.0778,1.897,8.06,1111122 
DISL,ioos:station:DISL:DISL:1,2017-03-05T14:00:00Z,30.2513,-88.0778,1.892,7.8,1111122 
DISL,ioos:station:DISL:DISL:1,2017-03-05T14:30:00Z,30.2513,-88.0778,1.951,8.11,1111122 
DISL,ioos:station:DISL:DISL:1,2017-03-05T15:00:00Z,30.2513,-88.0778,1.964,7.92,1111122 
DISL,ioos:station:DISL:DISL:1,2017-03-05T15:30:00Z,30.2513,-88.0778,1.993,7.64,1111122 
DISL,ioos:station:DISL:DISL:1,2017-03-05T16:00:00Z,30.2513,-88.0778,2.001,7.56,1111122 
DISL,ioos:station:DISL:DISL:1,2017-03-05T16:30:00Z,30.2513,-88.0778,2.039,7.53,1111122 
DISL,ioos:station:DISL:DISL:1,2017-03-05T17:00:00Z,30.2513,-88.0778,2.061,7.54,1111122 
DISL,ioos:station:DISL:DISL:1,2017-03-05T17:30:00Z,30.2513,-88.0778,2.081,7.68,1111122 
DISL,ioos:station:DISL:DISL:1,2017-03-05T18:00:00Z,30.2513,-88.0778,2.122,7.61,1111122 
DISL,ioos:station:DISL:DISL:1,2017-03-05T18:30:00Z,30.2513,-88.0778,2.154,7.79,1111122 
DISL,ioos:station:DISL:DISL:1,2017-03-05T19:00:00Z,30.2513,-88.0778,2.176,7.94,1111122 
DISL,ioos:station:DISL:DISL:1,2017-03-05T19:30:00Z,30.2513,-88.0778,2.191,7.66,1111122 
DISL,ioos:station:DISL:DISL:1,2017-03-05T20:00:00Z,30.2513,-88.0778,2.196,7.73,1111122 
DISL,ioos:station:DISL:DISL:1,2017-03-05T20:30:00Z,30.2513,-88.0778,2.237,7.58,1111122 
DISL,ioos:station:DISL:DISL:1,2017-03-05T21:00:00Z,30.2513,-88.0778,2.153,7.56,1111122 
DISL,ioos:station:DISL:DISL:1,2017-03-05T21:30:00Z,30.2513,-88.0778,2.264,7.73,1111122 
DISL,ioos:station:DISL:DISL:1,2017-03-05T22:00:00Z,30.2513,-88.0778,2.252,7.68,1111122 
DISL,ioos:station:DISL:DISL:1,2017-03-05T22:30:00Z,30.2513,-88.0778,2.265,7.86,1111122 
DISL,ioos:station:DISL:DISL:1,2017-03-05T23:00:00Z,30.2513,-88.0778,2.305,7.7,1111122 
DISL,ioos:station:DISL:DISL:1,2017-03-05T23:30:00Z,30.2513,-88.0778,2.272,7.64,1111122 
DISL,ioos:station:DISL:DISL:1,2017-03-06T00:00:00Z,30.2513,-88.0778,2.224,7.73,1111122 
DISL,ioos:station:DISL:DISL:1,2017-03-06T00:30:00Z,30.2513,-88.0778,2.257,7.81,1111122 
DISL,ioos:station:DISL:DISL:1,2017-03-06T01:00:00Z,30.2513,-88.0778,2.239,8.01,1111122 
DISL,ioos:station:DISL:DISL:1,2017-03-06T01:30:00Z,30.2513,-88.0778,2.23,7.98,1111122 
DISL,ioos:station:DISL:DISL:1,2017-03-06T02:00:00Z,30.2513,-88.0778,2.208,7.97,1111122 
DISL,ioos:station:DISL:DISL:1,2017-03-06T02:30:00Z,30.2513,-88.0778,2.174,7.86,1111122 
DISL,ioos:station:DISL:DISL:1,2017-03-06T03:00:00Z,30.2513,-88.0778,2.162,7.85,1111122 
DISL,ioos:station:DISL:DISL:1,2017-03-06T03:30:00Z,30.2513,-88.0778,2.147,7.65,1111122 
DISL,ioos:station:DISL:DISL:1,2017-03-06T04:00:00Z,30.2513,-88.0778,2.115,7.61,1111122 
DISL,ioos:station:DISL:DISL:1,2017-03-06T04:30:00Z,30.2513,-88.0778,2.087,7.59,1111122 
DISL,ioos:station:DISL:DISL:1,2017-03-06T05:00:00Z,30.2513,-88.0778,2.074,7.57,1111122 
DISL,ioos:station:DISL:DISL:1,2017-03-06T05:30:00Z,30.2513,-88.0778,2.066,7.57,1111122 
DISL,ioos:station:DISL:DISL:1,2017-03-06T06:00:00Z,30.2513,-88.0778,2.039,7.6,1111122 
DISL,ioos:station:DISL:DISL:1,2017-03-06T06:30:00Z,30.2513,-88.0778,2.023,7.58,1111122 
DISL,ioos:station:DISL:DISL:1,2017-03-06T07:00:00Z,30.2513,-88.0778,2.001,7.56,1111122 
DISL,ioos:station:DISL:DISL:1,2017-03-06T07:30:00Z,30.2513,-88.0778,1.989,7.6,1111122 
DISL,ioos:station:DISL:DISL:1,2017-03-06T08:00:00Z,30.2513,-88.0778,1.973,7.67,1111122 
DISL,ioos:station:DISL:DISL:1,2017-03-06T08:30:00Z,30.2513,-88.0778,1.949,7.68,1111122 
DISL,ioos:station:DISL:DISL:1,2017-03-06T09:00:00Z,30.2513,-88.0778,1.944,7.71,1111122 
DISL,ioos:station:DISL:DISL:1,2017-03-06T09:30:00Z,30.2513,-88.0778,1.936,7.71,1111122 
DISL,ioos:station:DISL:DISL:1,2017-03-06T10:00:00Z,30.2513,-88.0778,1.947,7.65,1111122 
DISL,ioos:station:DISL:DISL:1,2017-03-06T10:30:00Z,30.2513,-88.0778,1.936,7.96,1111122 
DISL,ioos:station:DISL:DISL:1,2017-03-06T11:00:00Z,30.2513,-88.0778,1.935,8.2,1111122 
DISL,ioos:station:DISL:DISL:1,2017-03-06T11:30:00Z,30.2513,-88.0778,1.947,8.05,1111122 
DISL,ioos:station:DISL:DISL:1,2017-03-06T12:00:00Z,30.2513,-88.0778,1.965,7.9,1111122 
DISL,ioos:station:DISL:DISL:1,2017-03-06T12:30:00Z,30.2513,-88.0778,1.965,7.67,1111122 
DISL,ioos:station:DISL:DISL:1,2017-03-06T13:00:00Z,30.2513,-88.0778,1.976,7.83,1111122 
DISL,ioos:station:DISL:DISL:1,2017-03-06T13:30:00Z,30.2513,-88.0778,1.997,7.9,1111122 
DISL,ioos:station:DISL:DISL:1,2017-03-06T14:00:00Z,30.2513,-88.0778,1.982,7.84,1111122 
DISL,ioos:station:DISL:DISL:1,2017-03-06T14:30:00Z,30.2513,-88.0778,2.021,7.88,1111122 
DISL,ioos:station:DISL:DISL:1,2017-03-06T15:00:00Z,30.2513,-88.0778,2.041,8.05,1111122 
DISL,ioos:station:DISL:DISL:1,2017-03-06T15:30:00Z,30.2513,-88.0778,2.04,7.88,1111122 
DISL,ioos:station:DISL:DISL:1,2017-03-06T16:00:00Z,30.2513,-88.0778,2.086,7.91,1111122 
DISL,ioos:station:DISL:DISL:1,2017-03-06T16:30:00Z,30.2513,-88.0778,2.111,7.87,1111122 
DISL,ioos:station:DISL:DISL:1,2017-03-06T17:00:00Z,30.2513,-88.0778,2.179,7.72,1111122 
DISL,ioos:station:DISL:DISL:1,2017-03-06T17:30:00Z,30.2513,-88.0778,1.939,7.89,1111122 